Skip Navigation Links
NOAA logo - Click to go to the NOAA homepage
NOAA's National Weather Service
Alaska Aviation Weather Unit
  NWS logo - Click to go to the NWS homepage
Left Navbar Graphic     00 AKDT = 08 GMT

   
NOAA is celebrating 200 years of science, service, and stewardship. Visit the NOAA 200th celebration Web site to learn more.
USA.gov is the U.S. Government's official Web portal to all Federal, state and local government Web resources and services.
Facebook
NWS on Facebook

Important Change Regarding the AAWU Web Presence

 

Over the last several months, the AAWU has been working to navigate its webpages to a nationally supported server. Security, as well as other needs, have necessitated the change.  We have been given an extension for the site changeover while we diligently work at addressing feedback received. As of July 14, 2017, aawu.arh.noaa.gov will be discontinued. The new AAWU web address is weather.gov/aawu. It is now live and will run in-parallel with the old site until it is discontinued on July 14, 2017. Please continue to send any feedback or questions regarding the new webpages to nws.ar.aawu.webauthors@noaa.gov.  Thank you for your patience during this time of transition.
AAWU Home :: Display TAF Add Bookmark
TAF PAGK 240541Z 2406/2506  15005KT P6SM SCT040 BKN120
     FM241200 VRB04KT P6SM VCSH SCT025 OVC040
     FM242100 16010G18KT P6SM FEW030 BKN060=



METAR PAGK 240253Z AUTO 14007KT 10SM CLR 13/04 A2958 RMK AO2 SLP023 T01280039 56012 TSNO $= METAR PAGK 240353Z AUTO 15007KT 10SM CLR 11/04 A2958 RMK AO2 SLP021 T01110039 TSNO $= METAR PAGK 240453Z AUTO 12006KT 10SM CLR 11/04 A2957 RMK AO2 SLP019 T01110039 TSNO $= METAR PAGK 240553Z AUTO 12006KT 10SM BKN120 11/04 A2956 RMK AO2 SLP015 T01060039 10144 20106 58007 TSNO $= METAR PAGK 240653Z AUTO 18005KT 10SM BKN110 10/04 A2956 RMK AO2 SLP013 T01000039 TSNO $= METAR PAGK 240753Z AUTO 16005KT 10SM BKN110 08/04 A2956 RMK AO2 SLP014 T00830039 TSNO $=
 Alaska TAF Map

NOAA's National Weather Service
Alaska Aviation Weather Unit
6930 Sand Lake Road
Anchorage, AK 99502-1845
Disclaimer
Credits
Glossary
Privacy Policy
About Us
Career Opportunities
Contact AAWU Internet Services Site last modified: April, 17th 2012